SCP
0 0 0 0 0 0 0 0 0 0 0 0 0 0 0 0 0 0 0 0 0 0 0 0 0 0 0 0 0 0 0 0 0 0 0 0 0 0 0 0 0 0 0 0
0 0 0 0 0 0 0 0 0 0 0 0 0 0 0 0 0 0 0 0 0 0 0 0 0 0 0 0 0 0 0 0 0 0 0 0 0 0 0 0 0 0 0 0
0 0 0 0 0 0 0 0 0 0 0 0 0 0 0 0 0 0 0 0 0 0 0 -0 -0 -0 0 0 0 0 0 0 0 0 0 0 0 0 0 0 0 0 0 0
0 0 0 0 0 0 0 0 0 0 0 0 0 0 0 0 0 0 0 0 0 0 0 0 0 0 0 0 0 0 0 0 0 0 0 0 0 0 0 0 0 0 0 0
0 0 0 0 0 0 0 0 0 0 0 0 0 0 0 0 0 0 0 0 0 0 0 0 0 0 0 0 0 0 0 0 0 0 0 0 0 0 0 0 0 0 0 0
0 0 0 0 0 0 0 0 0 0 0 0 0 0 0 0 0 0 0 0 0 0 0 0 0 0 0 0 0 0 0 0 0 0 0 0 0 0 0 0 0 0 0 0
0 0 0 0 0 0 0 0 0 0 0 0 0 0 0 0 0 0 0 0 0 0 0 0 0 0 0 0 0 0 0 0 0 0 0 0 0 0 0 0 0 0 0 0
0 0 0 0 0 0 0 0 0 0 0 0 0 0 0 0 0 0 0 0 0 0 0 0 0 0 0 0 0 0 0 0 0 0 0 0 0 0 0 0 0 0 0 0
0 0 0 0 0 0 0 0 0 0 0 0 0 0 0 0 0 0 0 0 0 0 0 0 0 0 0 0 0 0 0 0 0 0 0 0 0 0 0 0 0 0 0 0
0 0 0 0 0 0 0 0 0 0 0 0 0 0 0 0 0 0 0 0 0 0 0 0 0 0 0 0 0 0 0 0 0 0 0 0 0 0 0 0 0 0 0 0
0 0 0 0 0 0 0 0 0 0 0 0 0 0 0 0 0 0 0 0 0 0 0 0 0 0 0 0 0 0 0 0 0 0 0 0 0 0 0 0 0 0 0 0
0 0 0 0 0 0 0 0 0 0 0 0 0 0 0 0 0 0 0 0 0 0 0 0 0 0 0 0 0 0 0 0 0 0 0 0 0 0 0 0 0 0 0 0
0 0 0 0 0 0 0 0 0 0 0 0 0 0 0 0 0 0 0 0 0 0 0 0 0 0 0 0 0 0 0 0 0 0 0 0 0 0 0 0 0 0 0 0
0 0 0 0 0 0 0 0 0 0 0 0 0 0 0 0 0 0 0 0 0 0 0 0 0 0 0 0 0 0 0 0 0 0 0 0 0 0 0 0 0 0 0 0
0 0 0 0 0 0 0 0 0 0 0 0 0 0 0 0 0 0 0 0 0 0 0 0 0 0 0 0 0 0 0 0 0 0 0 0 0 0 0 0 0 0 0 0
0 0 0 0 0 0 0 0 0 0 0 0 0 0 0 0 0 0 0 0 0 0 0 0 0 0 0 0 0 0 0 0 0 0 0 0 0 0 0 0 0 0 0 0
0 0 0 0 0 0 0 0 0 0 0 0 0 0 0 0 0 0 0 0 0 0 0 0 0 0 0 0 0 0 0 0 0 0 0 0 0 0 0 0 0 0 0 0
0 0 0 0 0 0 0 0 0 0 0 0 0 0 0 0 0 0 0 0 0 0 0 0 0 0 0 0 0 0 0 0 0 0 0 0 0 0 0 0 0 0 0 0
0 0 0 0 0 0 0 0 0 0 0 0 0 0 0 0 0 0 0 0 0 0 0 0 0 0 0 0 0 0 0 0 0 0 0 0 0 0 0 0 0 0 0 0
0 0 0 0 0 0 0 0 0 0 0 0 0 0 0 0 0 0 0 0 0 0 0 0 0 0 0 0 0 0 0 0 0 0 0 0 0 0 0 0 0 0 0 0
0 0 0 0 0 0 0 0 0 0 0 0 0 0 0 0 0 0 0 0 0 0 0 0 0 0 0 0 0 0 0 0 0 0 0 0 0 0 0 0 0 0 0 0
0 0 0 0 0 0 0 0 0 0 0 0 0 0 0 0 0 0 0 0 0 0 0 0 0 0 0 0 0 0 0 0 0 0 0 0 0 0 0 0 0 0 0 0
0 0 0 0 0 0 0 0 0 0 0 0 0 0 0 0 0 0 0 0 0 0 0 0 0 0 0 0 0 0 0 0 0 0 0 0 0 0 0 0 0 0 0 0
0 0 0 0 0 0 0 0 0 0 0 0 0 0 0 0 0 0 0 0 0 0 0 0 0 0 0 0 0 0 0 0 0 0 0 0 0 0 0 0 0 0 0 0
0 0 0 0 0 0 0 0 0 0 0 0 0 0 0 0 0 0 0 0 0 0 0 0 0 0 0 0 0 0 0 0 0 0 0 0 0 0 0 0 0 0 0 0
0 0 0 0 0 0 0 0 0 0 0 0 0 0 0 0 0 0 0 0 0 0 0 0 0 0 0 0 0 0 0 0 0 0 0 0 0 0 0 0 0 0 0 0
0 0 0 0 0 0 0 0 0 0 0 0 0 0 0 0 0 0 0 0 0 0 0 0 0 0 0 0 0 0 0 0 0 0 0 0 0 0 0 0 0 0 0 0
Wind_Speed
4 4 4 6 7 7 8 6 3 4 10 12 11 10 9 8 8 7 6 6 5 4 4 3 3 3 3 3 3 3 2 2 2 3 3 3 4 4 5 5 6 5 5 5
6 6 6 7 8 8 7 5 3 4 5 10 11 10 9 9 8 7 6 5 5 5 4 3 4 4 4 3 3 3 3 3 3 3 4 4 4 4 5 5 5 5 5 5
6 6 7 9 10 10 8 6 5 5 6 12 12 11 10 9 8 7 6 5 4 4 4 3 4 4 3 3 3 4 4 4 4 4 4 4 5 5 5 5 5 5 6 6
6 7 9 2 3 4 5 5 4 4 9 11 11 9 8 8 8 7 6 5 4 3 3 3 4 4 4 3 3 4 4 4 4 4 4 4 5 5 5 5 5 5 6 6
6 8 6 5 6 7 6 5 5 6 10 11 12 10 7 8 8 7 6 5 4 3 3 4 5 5 4 4 4 4 5 5 5 5 5 5 5 5 5 5 6 6 6 6
7 8 7 3 9 7 4 4 7 8 11 12 11 8 7 9 9 7 6 4 4 3 3 4 4 4 4 4 5 5 5 5 6 5 5 5 5 5 5 5 6 6 6 7
9 9 4 7 10 8 5 3 8 9 11 11 8 5 9 11 9 7 6 5 3 3 3 3 4 4 4 5 5 5 5 5 5 6 6 5 5 4 5 5 6 6 7 7
8 10 5 10 8 5 3 6 7 9 9 9 7 9 11 10 8 7 6 4 3 2 2 2 2 3 3 4 4 4 4 5 5 6 6 6 5 5 5 6 6 6 6 7
2 2 6 6 4 5 5 5 6 7 8 8 8 9 9 8 7 6 5 4 3 2 1 1 1 2 2 3 3 4 5 5 5 6 5 5 5 5 5 5 5 5 5 6
1 5 6 5 4 4 3 4 5 6 7 8 8 8 8 7 6 5 4 4 3 2 1 0 1 1 1 2 3 4 5 5 5 5 5 5 5 4 4 4 5 5 6 6
4 3 4 4 4 4 4 5 5 5 6 6 7 6 6 6 5 4 4 3 3 2 1 1 1 1 1 2 3 5 5 5 5 5 5 5 5 5 6 5 5 6 6 6
4 4 4 5 6 6 5 5 6 6 6 6 6 5 5 4 4 4 3 3 2 2 2 2 2 2 2 2 3 4 5 5 4 4 4 4 5 6 8 9 12 12 12 12
2 2 3 4 6 5 5 5 6 6 6 5 5 5 4 3 3 3 3 2 2 2 2 2 2 3 2 2 3 4 5 5 4 4 4 5 5 6 7 7 10 12 14 15
1 2 3 4 5 5 6 6 5 5 5 5 4 4 4 3 3 3 3 2 2 2 2 3 3 3 2 2 3 4 5 6 5 4 4 5 6 6 6 7 7 6 8 12
3 3 4 4 5 5 5 6 6 5 5 4 4 4 4 3 3 3 2 2 2 3 3 3 3 3 3 3 4 5 5 4 4 4 5 6 6 6 6 7 6 7 7 8
5 5 5 6 6 7 7 7 6 6 5 5 4 4 4 3 3 3 3 3 4 4 4 4 4 3 3 3 4 4 4 8 8 5 5 6 6 6 6 6 6 6 7 7
7 8 8 8 8 8 7 6 6 5 5 4 4 3 3 3 3 3 4 4 4 5 4 4 4 4 3 3 4 4 4 5 10 7 6 6 6 6 6 6 6 7 7 8
8 7 7 7 7 6 6 5 5 4 4 4 4 4 4 4 4 4 4 4 5 5 5 5 4 3 3 4 5 4 4 4 5 6 6 6 7 7 7 7 8 9 7 8
6 5 5 5 5 5 4 4 4 4 4 4 4 4 4 5 5 5 5 5 5 5 5 4 4 4 4 5 6 4 4 6 6 6 6 9 8 7 7 7 7 7 8 7
5 5 5 4 5 4 4 3 3 4 4 4 4 4 4 5 4 5 5 5 4 4 4 4 4 4 4 5 6 4 5 6 7 7 7 7 7 7 7 7 8 8 7 7
4 4 4 4 4 4 4 4 4 4 4 4 4 5 5 5 5 5 5 5 5 4 4 4 4 4 4 4 5 4 5 6 7 7 7 7 7 7 7 8 8 8 8 7
4 4 4 4 4 4 4 4 4 4 4 4 4 5 5 5 5 5 6 5 4 5 4 3 3 4 5 5 4 5 6 7 7 7 7 7 7 7 7 8 8 8 7 7
4 4 4 5 5 5 4 4 5 4 5 5 5 5 5 5 4 4 5 4 3 4 3 3 5 7 8 6 5 6 7 8 8 7 7 7 7 7 7 8 8 7 7 8
3 4 4 5 5 5 6 5 5 4 4 4 4 4 5 4 4 4 4 4 5 5 4 5 8 11 10 6 6 7 7 7 7 7 7 7 7 7 7 7 7 7 7 9
4 4 5 5 6 5 5 4 4 4 4 3 4 4 4 3 4 3 3 4 5 5 4 7 11 12 8 6 7 7 6 7 7 7 7 7 7 7 7 7 7 7 7 8
4 4 4 5 4 3 3 3 3 3 3 3 3 3 3 3 3 3 3 4 5 6 5 4 5 7 6 6 6 6 6 7 8 7 7 7 8 8 7 7 9 7 7 8
5 4 3 3 3 3 3 3 3 3 3 3 3 3 3 3 3 3 4 4 4 4 4 4 5 5 5 5 5 6 6 6 6 7 7 7 7 7 7 9 7 7 7 8
Wind_Direction
237 245 225 210 209 223 246 267 271 134 143 159 153 146 139 133 123 116 109 100 92 86 77 74 71 64 56 40 22 21 35 26 2 342 349 342 332 328 323 316 311 306 307 306
232 227 227 228 222 226 236 249 225 145 132 135 139 139 143 140 132 124 112 101 93 85 74 60 63 55 44 32 19 18 29 21 3 354 352 344 333 329 321 312 307 310 307 301
255 221 222 231 221 216 218 216 209 197 150 137 143 151 149 142 137 129 118 104 87 76 67 48 51 48 36 25 20 24 28 16 3 353 344 339 334 326 312 305 303 301 298 294
258 238 235 196 106 161 192 210 198 152 140 150 149 139 134 138 137 131 122 110 91 72 65 47 49 44 28 17 25 30 25 8 355 350 343 334 324 315 307 306 306 295 289 287
260 256 243 181 160 161 176 200 179 156 146 143 135 129 141 142 133 125 116 106 92 67 58 46 42 31 17 11 22 31 19 356 349 346 335 326 319 311 307 305 299 294 292 287
251 253 255 156 140 143 166 202 178 162 151 148 149 164 166 146 132 123 113 103 87 68 50 44 35 23 14 12 20 21 8 350 342 332 322 315 310 308 308 303 297 299 297 291
246 252 252 118 130 145 186 196 154 154 153 158 169 150 134 135 131 125 117 109 98 80 61 45 24 16 15 15 13 5 353 340 326 322 316 309 309 309 308 306 307 304 299 295
224 237 220 137 153 173 113 104 135 142 148 151 139 115 122 130 131 131 128 124 120 105 80 58 28 16 14 10 357 348 336 326 319 316 316 323 318 311 312 314 310 306 306 308
206 113 84 122 112 84 92 117 123 133 137 139 133 131 131 134 136 137 138 137 131 125 108 58 33 28 357 346 340 330 321 317 313 315 318 323 326 322 317 314 310 309 311 309
134 137 141 135 110 104 100 103 105 116 129 137 139 142 141 142 143 145 147 143 144 147 161 244 8 346 319 327 324 319 314 312 312 318 325 329 326 316 315 314 314 314 312 307
233 169 144 161 159 145 130 124 123 121 126 131 137 144 145 149 151 151 151 151 159 169 183 256 287 294 309 324 326 319 316 320 323 325 321 316 312 307 307 294 292 296 293 296
220 183 177 162 157 152 153 149 144 141 139 137 140 144 148 151 150 153 161 168 176 179 200 250 280 291 296 310 314 315 317 318 313 311 309 305 302 304 296 289 293 292 285 284
290 118 111 128 143 152 160 156 152 151 149 148 147 151 156 156 155 160 173 191 205 212 226 250 269 282 295 308 308 306 304 304 303 303 304 303 303 303 302 299 290 289 290 290
94 123 160 156 158 161 166 166 162 160 158 156 155 157 161 165 172 181 197 217 228 236 246 254 263 270 280 290 292 292 295 297 298 290 292 296 294 292 292 298 303 299 293 290
197 198 182 159 159 165 168 169 171 173 168 167 162 164 172 181 195 205 212 229 243 249 255 260 264 264 265 275 280 285 289 284 283 284 283 284 284 285 287 291 293 296 299 299
200 190 184 184 184 183 182 184 186 184 180 180 180 182 188 196 205 217 223 230 241 248 255 260 263 263 265 268 277 280 278 283 289 284 281 281 281 283 287 289 291 292 293 296
208 201 196 193 192 194 194 193 193 192 190 190 191 192 202 210 218 228 234 237 245 251 253 257 259 260 267 273 278 275 274 281 289 289 281 283 285 286 286 284 286 288 288 289
216 209 204 199 192 192 195 195 195 199 203 202 198 204 217 225 233 238 241 243 249 254 255 259 262 265 272 273 273 271 275 278 279 282 283 283 285 286 285 284 286 288 289 291
201 196 196 194 189 190 195 200 200 206 212 213 216 219 224 233 239 245 251 251 253 258 260 262 265 267 273 274 279 267 275 281 283 283 282 285 287 284 284 286 286 288 289 291
189 184 187 189 190 192 195 199 207 214 215 220 226 230 234 238 243 250 253 252 244 242 250 264 268 273 277 280 286 281 283 284 285 287 285 282 282 284 284 286 287 288 290 292
179 177 181 188 192 194 200 208 214 218 218 220 227 236 242 246 247 252 253 256 253 247 250 253 253 253 257 276 287 281 280 281 282 282 283 284 285 286 287 289 290 291 291 292
188 192 196 201 206 210 211 218 224 228 227 227 232 239 245 250 253 254 251 247 249 247 242 245 251 261 274 288 276 274 274 276 277 276 276 278 280 282 285 288 288 289 289 290
204 210 216 220 224 230 230 231 233 233 231 231 234 239 244 249 249 253 261 254 251 252 252 254 267 276 280 279 271 272 273 273 274 275 276 277 278 279 282 285 286 287 290 291
238 234 234 234 234 235 237 239 241 240 236 235 235 239 245 250 252 248 252 260 258 262 260 261 270 273 274 268 267 268 270 271 272 274 276 278 280 279 280 282 284 285 288 292
251 251 249 244 239 237 241 244 246 243 237 236 241 242 245 241 246 252 254 262 266 268 264 266 272 273 266 263 265 269 273 276 280 283 279 280 280 280 280 281 283 286 288 290
258 257 253 253 251 241 241 239 237 235 236 240 242 244 250 249 250 253 255 261 267 274 273 269 266 266 263 264 266 271 276 284 286 282 279 284 285 284 282 281 283 284 285 286
262 262 255 250 247 241 242 239 236 238 240 244 251 251 254 261 264 264 265 265 265 265 265 266 268 269 270 270 272 275 278 279 279 280 281 280 280 281 282 283 283 283 285 284